sat.trackr.live / text

‹ back to catalog

STARLINK-32885

NORAD 62958 · 2025-029L

PAYLOAD ACTIVE UNKNOWN

§ Identity

Operator
Country
US
Launch date
2025-02-11
Launch site
AFWTR
Launch vehicle
Mass (kg)
RCS (m²)

Purposes: comms

External: N2YO · Heavens-Above · Gunter

§ Orbital elements

Epoch: 2026-05-24T23:36:18.299232Z

Period
93.85 min
Inclination
53.1591°
Eccentricity
0.0001012
Mean motion
15.34403265 rev/d
Perigee alt
462.0 km
Apogee alt
463.4 km
Semi-major
6,840.8 km
B*
8.4780e-4
RAAN
235.5862°
Arg perigee
70.0986°
Mean anomaly
290.0126°
Rev number
7,303

§ Raw data

STARLINK-328851 62958U 25029L   26144.98354513  .00028380  00000+0  84780-3 0  99932 62958  53.1591 235.5862 0001012  70.0986 290.0126 15.34403265 73037

JSON: /api/v1/satellites/62958 · /tle

For live sub-satellite position, see the globe view (requires WebGL).

§ Visibility from observer

Set your observer location to see the next 7 days of passes ≥ 10°. The values pass through the URL so the page stays shareable.

No JS? Fill the form by hand. The geolocation button needs JavaScript.